DW4253 Weather Reports


time (UTC)temp
C
wind
direction
speed
KPH
gust
KPH
rain 1hr
cm
rain 24hr
cm
rain mn
cm
humidity
%
barometer
mb
20260503010304 13 138 0.0 4.8 0.00 1.37 0.03 96 1013.2
20260503000803 13 122 1.6 4.8 0.00 1.37 0.03 95 1013.7
20260503000304 13 117 1.6 4.8 0.00 1.37 0.03 95 1013.8
20260502220304 13 19 1.6 11.3 0.43 1.37 0.03 93 1014.3
20260502210304 15 342 9.7 35.4 0.99 0.99 0.99 90 1015.1
20260502200304 18 66 3.2 14.5 0.00 0.00 0.00 77 1014.2
20260502190804 20 80 1.6 3.2 0.00 0.00 0.00 73 1014.6
20260502170306 22 321 1.6 8.0 0.00 0.00 0.00 64 1014.8
20260502160304 24 276 1.6 11.3 0.00 0.00 0.00 54 1015.4
20260502150804 24 218 1.6 4.8 0.00 0.00 0.00 54 1016.2
20260502150303 24 222 3.2 14.5 0.00 0.00 0.00 55 1016.3
20260502130304 24 211 3.2 19.3 0.00 0.00 0.00 55 1017.7
20260502120304 23 199 6.4 16.1 0.00 0.00 0.00 59 1018.5
20260502110804 24 194 6.4 14.5 0.00 0.00 0.00 56 1019.0
20260502100804 23 196 3.2 9.7 0.00 0.00 0.00 56 1019.5
20260502100303 23 252 4.8 16.1 0.00 0.00 0.00 59 1019.5
20260502090804 21 182 1.6 4.8 0.00 0.00 0.00 61 1019.7
20260502070304 14 198 3.2 8.0 0.00 0.00 0.00 69 1019.9
20260502060804 12 232 0.0 0.0 0.00 0.00 0.00 71 1019.8
20260502050804 12 227 1.6 3.2 0.00 0.00 0.00 65 1019.6
20260502040304 8 118 0.0 0.0 0.00 0.00 0.00 81 1019.4
20260502030804 7 118 0.0 0.0 0.00 0.00 0.00 81 1019.8